OE3AOG Weather Reports


time (UTC)temp
C
wind
direction
speed
KPH
gust
KPH
rain 1hr
cm
rain 24hr
cm
rain mn
cm
humidity
%
barometer
mb
20260506155529 23 166 11.3 25.7 0.00 0.00 0.00 42 1003.7
20260506154521 23 168 9.7 22.5 0.00 0.00 0.00 43 1003.7
20260506153529 22 177 16.1 30.6 0.00 0.00 0.00 43 1003.7
20260506152521 23 161 14.5 35.4 0.00 0.00 0.00 43 1003.8
20260506151529 23 169 16.1 35.4 0.00 0.00 0.00 43 1004.0
20260506150521 23 168 14.5 40.2 0.00 0.00 0.00 43 1003.9
20260506145529 23 174 12.9 33.8 0.00 0.00 0.00 42 1004.0
20260506144521 23 158 12.9 37.0 0.00 0.00 0.00 41 1003.9
20260506143522 23 165 14.5 37.0 0.00 0.00 0.00 40 1004.0
20260506142529 23 168 16.1 37.0 0.00 0.00 0.00 39 1004.1
20260506141521 24 165 16.1 30.6 0.00 0.00 0.00 37 1004.1
20260506140530 24 175 14.5 38.6 0.00 0.00 0.00 37 1004.0
20260506135530 25 173 12.9 29.0 0.00 0.00 0.00 36 1003.9
20260506134529 25 168 12.9 37.0 0.00 0.00 0.00 36 1004.0
20260506133521 25 171 12.9 27.4 0.00 0.00 0.00 36 1004.0
20260506132529 25 178 12.9 32.2 0.00 0.00 0.00 36 1004.0
20260506131521 25 164 11.3 27.4 0.00 0.00 0.00 35 1003.9
20260506130529 25 156 12.9 30.6 0.00 0.00 0.00 36 1004.0
20260506125529 25 162 11.3 24.1 0.00 0.00 0.00 35 1004.3
20260506124522 25 168 11.3 29.0 0.00 0.00 0.00 34 1004.2
20260506123530 25 179 11.3 25.7 0.00 0.00 0.00 34 1004.4
20260506122522 24 167 9.7 27.4 0.00 0.00 0.00 35 1004.4
20260506121529 24 162 11.3 27.4 0.00 0.00 0.00 35 1004.3
20260506120521 24 139 11.3 24.1 0.00 0.00 0.00 35 1004.5
20260506115522 25 154 12.9 30.6 0.00 0.00 0.00 35 1004.5
20260506114529 24 146 9.7 29.0 0.00 0.00 0.00 35 1004.7
20260506113522 24 166 9.7 22.5 0.00 0.00 0.00 34 1004.9
20260506112530 25 144 11.3 32.2 0.00 0.00 0.00 33 1005.0
20260506111521 25 156 11.3 24.1 0.00 0.00 0.00 32 1005.2
20260506110530 25 166 8.0 22.5 0.00 0.00 0.00 33 1005.2
20260506105530 23 132 12.9 24.1 0.00 0.00 0.00 33 1005.5
20260506104522 23 141 11.3 27.4 0.00 0.00 0.00 32 1005.7
20260506103529 23 141 12.9 30.6 0.00 0.00 0.00 38 1005.9
20260506102522 23 140 9.7 27.4 0.00 0.00 0.00 40 1006.1
20260506101529 22 134 11.3 24.1 0.00 0.00 0.00 41 1006.1
20260506100521 22 125 12.9 24.1 0.00 0.00 0.00 42 1006.4
20260506095522 22 131 14.5 37.0 0.00 0.00 0.00 42 1006.7
20260506094530 21 136 12.9 24.1 0.00 0.00 0.00 45 1006.7
20260506093521 22 149 9.7 27.4 0.00 0.00 0.00 45 1006.9
20260506092522 22 116 9.7 27.4 0.00 0.00 0.00 44 1007.0
20260506091530 22 140 11.3 24.1 0.00 0.00 0.00 44 1007.1
20260506090522 22 120 11.3 20.9 0.00 0.00 0.00 43 1007.2
20260506085530 22 110 9.7 22.5 0.00 0.00 0.00 43 1007.2
20260506084521 22 130 9.7 22.5 0.00 0.00 0.00 41 1007.2
20260506083530 22 129 8.0 17.7 0.00 0.00 0.00 41 1007.2
20260506082521 22 144 6.4 14.5 0.00 0.00 0.00 42 1007.2
20260506081529 22 141 6.4 16.1 0.00 0.00 0.00 41 1007.0
20260506080522 22 168 4.8 9.7 0.00 0.00 0.00 40 1007.2
20260506072522 21 150 3.2 8.0 0.00 0.00 0.00 44 1007.3
20260506071530 21 138 4.8 9.7 0.00 0.00 0.00 43 1007.4
20260506070522 20 157 4.8 8.0 0.00 0.00 0.00 45 1007.6
20260506061530 20 110 0.0 3.2 0.00 0.00 0.00 49 1007.6
20260506060522 19 274 0.0 4.8 0.00 0.00 0.00 52 1007.7
20260506050522 16 107 1.6 6.4 0.00 0.00 0.00 64 1007.8
20260506044523 15 66 3.2 8.0 0.00 0.00 0.00 63 1007.7
20260506043530 13 126 3.2 8.0 0.00 0.00 0.00 69 1007.6
20260506042522 13 142 1.6 6.4 0.00 0.00 0.00 72 1007.5
20260506041531 12 167 1.6 4.8 0.00 0.00 0.00 72 1007.6
20260506040522 12 151 1.6 6.4 0.00 0.00 0.00 71 1007.5
20260506035530 12 163 4.8 6.4 0.00 0.00 0.00 71 1007.4
20260506034531 12 123 3.2 6.4 0.00 0.00 0.00 71 1007.4
20260506033522 12 137 3.2 4.8 0.00 0.00 0.00 70 1007.3
20260506032531 12 117 1.6 4.8 0.00 0.00 0.00 70 1007.3
20260506031522 12 77 3.2 8.0 0.00 0.00 0.00 70 1007.1
20260506030530 12 142 4.8 8.0 0.00 0.00 0.00 70 1007.0
20260506025523 12 141 1.6 6.4 0.00 0.00 0.00 71 1007.1
20260506024531 12 114 3.2 6.4 0.00 0.00 0.00 71 1007.2
20260506023523 12 149 3.2 8.0 0.00 0.00 0.00 71 1007.1
20260506022531 12 169 3.2 4.8 0.00 0.00 0.00 70 1007.0
20260506021522 13 155 4.8 6.4 0.00 0.00 0.00 70 1007.0
20260506020531 13 165 3.2 6.4 0.00 0.00 0.00 70 1006.9
20260506015522 13 118 1.6 4.8 0.00 0.00 0.00 69 1006.8
20260506014530 13 142 1.6 6.4 0.00 0.00 0.00 68 1006.7
20260506013523 13 145 3.2 6.4 0.00 0.00 0.00 69 1006.6
20260506012531 13 111 3.2 4.8 0.00 0.00 0.00 70 1006.5
20260506011523 13 81 3.2 4.8 0.00 0.00 0.00 69 1006.5
20260506010530 13 135 1.6 4.8 0.00 0.00 0.00 69 1006.6
20260506005523 13 105 3.2 3.2 0.00 0.00 0.00 70 1006.5
20260506004531 12 132 1.6 4.8 0.00 0.00 0.00 70 1006.2
20260506003522 12 80 1.6 3.2 0.00 0.00 0.00 70 1006.0
20260506002530 12 108 0.0 3.2 0.00 0.00 0.00 70 1005.9
20260506001523 12 113 1.6 3.2 0.00 0.00 0.00 69 1005.8
20260506000531 12 88 1.6 3.2 0.00 0.00 0.00 69 1005.7
20260505235523 12 44 1.6 4.8 0.00 0.00 0.00 69 1005.7
20260505234531 12 55 1.6 4.8 0.00 0.00 0.00 69 1005.6
20260505233522 12 98 0.0 3.2 0.00 0.00 0.00 70 1005.5
20260505232531 12 142 1.6 3.2 0.00 0.00 0.00 70 1005.4
20260505231523 12 120 1.6 3.2 0.00 0.00 0.00 69 1005.2
20260505230531 13 111 1.6 4.8 0.00 0.00 0.00 68 1005.2
20260505225522 13 133 1.6 4.8 0.00 0.00 0.00 67 1005.2
20260505224530 13 130 1.6 4.8 0.00 0.00 0.00 66 1005.1
20260505223523 13 124 1.6 3.2 0.00 0.00 0.00 64 1005.0
20260505222523 14 104 0.0 3.2 0.00 0.00 0.00 63 1004.8
20260505221531 13 140 1.6 4.8 0.00 0.00 0.00 63 1004.8
20260505220523 13 135 1.6 4.8 0.00 0.00 0.00 63 1004.8
20260505215531 13 141 1.6 3.2 0.00 0.00 0.00 63 1004.6
20260505214523 14 39 1.6 4.8 0.00 0.00 0.00 62 1004.6
20260505213531 14 110 3.2 4.8 0.00 0.00 0.00 61 1004.5
20260505212531 16 23 1.6 6.4 0.00 0.00 0.00 57 1004.4
20260505211523 17 136 0.0 6.4 0.00 0.00 0.00 52 1004.3
20260505210531 17 154 3.2 8.0 0.00 0.00 0.00 51 1004.1
20260505205523 17 164 4.8 9.7 0.00 0.00 0.00 51 1004.0
20260505204531 17 167 8.0 14.5 0.00 0.00 0.00 50 1003.8
20260505203522 17 173 8.0 16.1 0.00 0.00 0.00 50 1003.7
20260505202531 17 168 8.0 16.1 0.00 0.00 0.00 50 1003.7
20260505201524 17 175 8.0 16.1 0.00 0.00 0.00 50 1003.6
20260505200531 18 176 8.0 16.1 0.00 0.00 0.00 50 1003.6
20260505195523 18 178 8.0 17.7 0.00 0.00 0.00 49 1003.6
20260505194515 18 175 9.7 20.9 0.00 0.00 0.00 49 1003.7
20260505193524 18 176 9.7 19.3 0.00 0.00 0.00 49 1003.5
20260505192531 18 170 8.0 20.9 0.00 0.00 0.00 49 1003.4
20260505191523 18 177 9.7 25.7 0.00 0.00 0.00 48 1003.4
20260505190532 18 175 9.7 20.9 0.00 0.00 0.00 48 1003.3
20260505185523 18 177 9.7 20.9 0.00 0.00 0.00 47 1003.4
20260505184524 19 181 12.9 25.7 0.00 0.00 0.00 46 1003.4
20260505183531 19 169 9.7 20.9 0.00 0.00 0.00 46 1003.3
20260505182524 19 170 11.3 30.6 0.00 0.00 0.00 46 1003.2
20260505181532 20 160 12.9 29.0 0.00 0.00 0.00 45 1003.2
20260505180523 20 167 11.3 22.5 0.00 0.00 0.00 45 1003.4
20260505175530 20 166 12.9 24.1 0.00 0.00 0.00 44 1003.3
20260505174524 20 172 11.3 24.1 0.00 0.00 0.00 43 1003.3
20260505173523 20 163 12.9 27.4 0.00 0.00 0.00 43 1003.3
20260505172531 20 167 11.3 30.6 0.00 0.00 0.00 42 1003.5
20260505171523 21 156 11.3 22.5 0.00 0.00 0.00 41 1003.5
20260505170531 21 156 9.7 27.4 0.00 0.00 0.00 41 1003.5
20260505165532 21 175 12.9 30.6 0.00 0.00 0.00 40 1003.5
20260505164523 22 163 12.9 32.2 0.00 0.00 0.00 39 1003.6
20260505163531 22 176 14.5 33.8 0.00 0.00 0.00 38 1003.8
20260505162523 22 157 11.3 30.6 0.00 0.00 0.00 38 1003.9
20260505161531 23 164 16.1 32.2 0.00 0.00 0.00 38 1004.1
20260505160524 23 174 11.3 27.4 0.00 0.00 0.00 38 1004.1